Terminal Aerodrome Forecast
Issued by NWS

Home | Current Version | Previous Version | Text Only | Print | Product List | Glossary On
Versions: 1 2 3 4 5 6 7 8 9 10 11 12 13 14 15 16 17 18 19 20 21 22
000
FTUS41 KOKX 242300 CCA
TAFSWF
TAF COR
KSWF 242344Z 2500/2606 VRB05KT 2SM -RA BR OVC003 WS020/20050KT
      TEMPO 2502/2506 1SM -RA BR OVC003
     FM250600 20014G20KT 1SM +RA BR BKN003 WS020/22055KT
     FM250900 27014G24KT P6SM SCT020 BKN080
     FM251400 28018G32KT P6SM SCT080 BKN250
     FM252100 28014G24KT P6SM SKC
      AMD NOT SKED=

USA.gov is the U.S. government's official web portal to all federal, state and local government web resources and services.